Weather in Dewas

India     22°56′31″N   76°03′37″E
temp.,
°C
wind,
m/s
gust,
m/s
humid.,
%
clouds,
%
prec.,
mm/h
press.,
hPa
HPBL,
m
18 april, sun
sun1823:30+30w34200 0.0 101152
02:30+27w23250 0.0 101137
05:30+25ne11290 0.0 101211
08:30+31nne34210 0.0 1013525
11:30+36ne44160 0.0 10123524
14:30+37nne21110 0.0 10094316
17:30+37n23115 0.0 10074375
20:30+33nne36155 0.0 1009116
19 april, mon
mon1923:30+31n221779 0.0 100923
02:30+29e331916 0.0 100839
05:30+27wnw22228 0.0 100920
08:30+32e22165 0.0 1010355
11:30+37se251216 0.0 10094403
14:30+39w241085 0.0 10054584
17:30+38w441092 0.0 10044609
20:30+34wsw491284 0.0 1006293
20 april, tue
tue2023:30+31w341516 0.0 100763
02:30+29wnw4112046 0.0 1006358
05:30+27w41034100 0.0 1007280
08:30+31wnw6827100 0.0 1009609
11:30+36wnw661860 0.0 10082351
14:30+38w6712100 0.0 10053844
17:30+36wnw6713100 0.0 10053494
20:30+32wnw3717100 0.0 1007149
21 april, wed
wed2123:30+30wnw3921100 0.0 1008213
02:30+28wnw3926100 0.0 1007221
05:30+27wnw392898 0.0 1009268
08:30+30wnw5722100 0.0 1011548
11:30+35wnw4617100 0.0 10102067
14:30+34w4618100 0.0 10082592
17:30+35w6715100 0.0 10072783
20:30+31wsw3820100 0.0 1009178
22 april, thu
thu2223:30+29w3925100 0.0 1010254
02:30+27wnw3926100 0.0 1009255
05:30+25nnw2327100 0.0 101050
08:30+29nnw3323100 0.0 1011370
11:30+34nw451499 0.0 10102437
14:30+37w459100 0.0 10073310
17:30+36w459100 0.0 10073242
20:30+32w3613100 0.0 1008113